Miscellaneous Local Product
Issued by NWS Hastings, NE

Home | Current Version | Previous Version | Graphics & Text | Print | Product List | Glossary On
Versions: 1 2 3 4 5 6 7 8 9 10 11 12 13 14 15 16 17 18 19 20 21 22 23 24 25 26 27 28 29 30 31 32 33 34 35 36 37 38 39 40 41 42 43 44 45 46 47 48 49 50
000
AXUS43 KGID 220402
MISGRI

GID CWA HOURLY WEATHER ROUNDUP
NATIONAL WEATHER SERVICE HASTINGS NE
1000 PM CST SUN DEC 21 2014

NOTE: "FAIR" INDICATES FEW OR NO CLOUDS BELOW 12,000 FEET WITH NO
SIGNIFICANT WEATHER AND/OR OBSTRUCTIONS TO VISIBILITY.

...SOUTH CENTRAL NEBRASKA...

CITY           SKY/WX    TMP DP  RH WIND       PRES   REMARKS
GRAND ISLAND   CLOUDY    41  39  93 S17       29.56F
HASTINGS       CLOUDY    41  38  89 S15       29.54F
KEARNEY        CLOUDY    39  37  93 S17G23    29.54F WCI  30
ORD            CLOUDY    38  36  92 S14       29.50F WCI  30
YORK           CLOUDY    41  41 100 S16       29.60F
AURORA         CLOUDY    41  41 100 S14       29.57F FOG
LEXINGTON      CLOUDY    39  37  91 S17       29.48F WCI  30
HOLDREGE       CLOUDY    39  37  93 S12       29.54F WCI  32
HEBRON         CLOUDY    43  40  91 S10       29.63S FOG

...NEBRASKA PANHANDLE...

CITY           SKY/WX    TMP DP  RH WIND       PRES   REMARKS
CHADRON        MOCLDY    36  30  79 W13       29.52R WCI  27
ALLIANCE       CLOUDY    37  30  75 NW16      29.52R WCI  28
SCOTTSBLUFF    CLOUDY    39  31  72 W13       29.55S WCI  31
SIDNEY         MOCLDY    38  32  79 NW13      29.57R WCI  30

...WESTERN AND NORTH CENTRAL NEBRASKA...

CITY           SKY/WX    TMP DP  RH WIND       PRES   REMARKS
VALENTINE      CLOUDY    36  31  82 SW5       29.44R WCI  32
AINSWORTH      CLOUDY    34  32  92 S10       29.45R WCI  26
ONEILL         CLOUDY    38  38  97 S10       29.50S FOG     WCI  31
BROKEN BOW     CLOUDY    38  35  89 S7        29.49R WCI  33
IMPERIAL       PTCLDY    36  29  75 W9        29.51S WCI  29
NORTH PLATTE   MOCLDY    32  30  92 SW5       29.49R WCI  27
MCCOOK         CLOUDY    35  33  92 SE6       29.50F FOG     WCI  30

...EASTERN NEBRASKA...

CITY           SKY/WX    TMP DP  RH WIND       PRES   REMARKS
NORFOLK        LGT RAIN  41  39  93 S14       29.56R
SO SIOUX CITY  CLOUDY    41  39  93 SE12      29.61F FOG
TEKAMAH        LGT RAIN  43  41  93 S16       29.64F
COLUMBUS       CLOUDY    41  37  87 S14       29.61S
ALBION         CLOUDY    40  37  90 S13G21    29.55F WCI  32
OMAHA EPPLEY   DRIZZLE   43  41  93 S20       29.67F FOG
OFFUTT AFB     CLOUDY    42  41  96 SE15      29.66S FOG
MILLARD        LGT RAIN  43  41  93 S12G18    29.66S
LINCOLN        CLOUDY    43  41  93 S15       29.64F
NEBRASKA CITY  CLOUDY    42  42 100 S15       29.68S FOG
BEATRICE       CLOUDY    42  41  97 S16       29.64F
FALLS CITY     CLOUDY    43  41  93 S13       29.70F FOG

...NORTHERN KANSAS...

CITY           SKY/WX    TMP DP  RH WIND       PRES   REMARKS
GOODLAND       CLOUDY    43  36  76 W16       29.54S
HILL CITY      CLOUDY    42  37  82 S6        29.54F
NORTON         CLOUDY    37  34  87 S7        29.51S WCI  32
PHILLIPSBURG   CLOUDY    43  43 100 SE9       29.55F
SMITH CENTER   MOCLDY    39  37  93 SE13      29.58F WCI  32
BELOIT         CLOUDY    43  43 100 SE9       29.61F
HAYS           CLOUDY    41  34  75 S9        29.58S
RUSSELL        CLOUDY    42  41  96 S12       29.57F
CONCORDIA      CLOUDY    43  43 100 S10       29.63F
SALINA         CLOUDY    45  43  93 S15       29.64F FOG
TOPEKA         CLOUDY    46  42  86 S13G22    29.73F



USA.gov is the U.S. government's official web portal to all federal, state and local government web resources and services.